Regional Weather Roundup
Issued by NWS

Home | Current Version | Previous Version | Graphics & Text | Print | Product List | Glossary On
Versions: 1 2 3 4 5 6 7 8 9 10 11 12 13 14 15 16 17 18 19 20 21 22 23 24 25 26 27 28 29 30 31 32 33 34 35 36 37 38 39 40 41 42 43 44 45 46 47 48 49 50
058
ASUS45 KBOU 220910
RWRCO

WEATHER ROUNDUP FOR COLORADO
NATIONAL WEATHER SERVICE DENVER/BOULDER CO
200 AM MST MON JAN 22 2018

NOTE: "FAIR" INDICATES FEW OR NO CLOUDS BELOW 12000 FEET WITH NO
SIGNIFICANT WEATHER AND/OR OBSTRUCTIONS TO VISIBILITY.

COZ001>005-013-030-031-221000-
...NORTHWEST COLORADO...

CITY           SKY/WX    TMP DP  RH WIND       PRES   REMARKS
CRAIG          FAIR       1  -4  79 CALM      30.18R
HAYDEN         FLURRIES N/A N/A N/A NE3       30.17R
MEEKER         FAIR      -1  -4  87 NE5       30.17R WCI -11
RABBIT EARS PA SNOW       3   0  85 W13G24    29.93S VSB 1/2 WCI -14
STEAMBOAT SPGS CLOUDY    13  10  90 CALM      30.13R
WALDEN         FAIR      -4  -8  84 SE7       30.04R WCI -18
$$

COZ006>008-011-221000-
...WEST CENTRAL VALLEYS...

CITY           SKY/WX    TMP DP  RH WIND       PRES   REMARKS
GRAND JUNCTION FAIR      10   7  87 CALM      30.22R
MONTROSE       FAIR      16  11  80 SE6       30.24R WCI   7
EAGLE          FAIR       8   4  83 E5        30.18R WCI   0
RIFLE          FAIR      20  15  81 W7        30.20R WCI  11
DELTA          FAIR      20  13  73 NE6       30.23R WCI  13
NUCLA          FAIR      14   5  67 SE10      30.25R WCI   1
$$

COZ017>023-064>068-221000-
...SOUTHWEST COLORADO...

CITY           SKY/WX    TMP DP  RH WIND       PRES   REMARKS
DURANGO        FAIR      10   7  87 E8G16     30.07R WCI  -2
CORTEZ         FAIR       8   4  83 NE6       30.18S WCI  -2
PAGOSA SPRINGS SNOW      12  10  93 CALM      30.04R VSB 1/4
TELLURIDE      CLOUDY    10   6  82 CALM      30.10S
WOLF CREEK PAS FAIR       1  -6  71 NW6G18    29.95R WCI -10
$$

COZ009-010-012-014-032>034-037-058>063-221000-
...CENTRAL COLORADO...

CITY           SKY/WX    TMP DP  RH WIND       PRES   REMARKS
ASPEN          CLOUDY    15  10  80 CALM      30.10R
BUENA VISTA    FAIR      16   2  54 NW18G32   29.97R WCI  -1
COPPER MTN     NOT AVBL
BERTHOUD PASS  HVY SNOW  -6 -17  59 N22       29.80R VSB<1/4 WCI -31
COTTONWOOD PAS   N/A     18   0  45 NW15G32   29.90R WCI   3
GUNNISON       FAIR       7   1  76 VRB3      30.09R
KREMMLING      FAIR      10   5  79 N5        30.10R WCI   2
LEADVILLE      CLOUDY     2  -2  83 NW9       29.96R WCI -13
MONARCH PASS   CLOUDY    -2  -6  84 SW22G29   29.95R WCI -26
SALIDA         FAIR      17   4  56 NW5       30.07R WCI  10
SUNLIGHT       LGT SNOW N/A N/A N/A MISG      30.04S
WILKERSON PASS   N/A      3  -4  72 N22G39    29.83R WCI -19
$$

COZ069>075-221000-
...SAN LUIS VALLEY/SANGRE DE CRISTO MOUNTAINS...

CITY           SKY/WX    TMP DP  RH WIND       PRES   REMARKS
ALAMOSA        FAIR      10  -1  61 N7        30.00R WCI  -1
DEL NORTE      FAIR      16  -1  48 W17       30.00R WCI   0
LA VETA PASS   FAIR       5   1  85 S21         N/A  WCI -16
SAGUACHE       FAIR      18   3  53 N18G31    30.00R WCI   2
$$

COZ035-036-038>040-221000-
...NORTHERN COLORADO FRONT RANGE...

CITY           SKY/WX    TMP DP  RH WIND       PRES   REMARKS
DENVER INTL AP MOCLDY    23  11  60 NW7       29.95R WCI  15
DMNS CITY PARK NOT AVBL
AURORA         MOCLDY    22  13  69 W8        29.95R WCI  12
FRONT RANGE AP FAIR      24  15  68 W10       29.94R WCI  13
ERIE MUNI ARPT FAIR      16  12  82 S6        30.01S WCI   8
BOULDER MUN AP FAIR      23  18  80 W6        29.95S WCI  16
CENTENNIAL     FAIR      22  14  71 W7        29.94R WCI  13
BROOMFIELD     FAIR      23   9  54 W18       29.94S WCI   9
FORT COLLINS   FAIR      20  12  71 N12       29.96R WCI   8
LONGMONT       FAIR      15  10  78 W6        29.98S WCI   7
$$

COZ041-046-047-076>085-087-088-221000-
...PIKES PEAK/PALMER DIVIDE AND SOUTHERN FOOTHILLS...

CITY           SKY/WX    TMP DP  RH WIND       PRES   REMARKS
COLO. SPRINGS  FAIR      21  12  68 N13       29.93R WCI   9
A. F. ACADEMY  FAIR      13   8  81 N8        29.90R WCI   1
SCHRIEVER AFB  FAIR      16  10  77 W9        29.93R WCI   4
CHEYENNE MTN   FAIR      19   8  64 W3        29.85R
ELLICOTT         N/A    N/A N/A N/A N14         N/A
FALCON         FAIR      17  10  75 W10       29.90R WCI   4
FORT CARSON    FAIR      21   9  59 CALM      29.93R
LIMON          LGT SNOW  22  16  78 NW29G41   29.88R WCI   4
MONUMENT HILL  CLOUDY    16  12  86 W14       29.90R WCI   1
CANON CITY     FAIR      21  10  63 W14       29.96R WCI   8
WALSENBURG     FAIR      21  12  68 W14       29.95R WCI   8
TRINIDAD       FAIR      14  11  87 W10       29.96R WCI   1
$$

COZ042>045-048>051-090-091-221000-
...NORTHEAST COLORADO...

CITY           SKY/WX    TMP DP  RH WIND       PRES   REMARKS
GREELEY ARPT   FAIR      22  12  65 N17       29.97R WCI   8
AKRON          CLOUDY    24  19  81 NW31G38   29.89R HAZE    WCI   7
BURLINGTON     FOG       26  24  92 NW35G46   29.81R VSB 1   WCI   9
WRAY           CLOUDY    28  28 100 NW29G36   29.85R WCI  13
YUMA           LGT SNOW  25  23  93 NW28G33   29.88R WCI   8
STERLING       FAIR      28  21  74 N23       29.91R WCI  14
HOLYOKE        CLOUDY    30  27  86 NW25G36   29.87R WCI  16
FORT MORGAN    FAIR      25  13  62 NW26G33   29.94S WCI   8
$$

COZ086-089-092>099-221000-
...SOUTHEAST COLORADO...

CITY           SKY/WX    TMP DP  RH WIND       PRES   REMARKS
PUEBLO         FAIR      21  13  71 W8        29.98R WCI  11
LA JUNTA       FAIR      27  16  63 NW18      29.96R WCI  14
LAMAR          FAIR      25  18  74 W17       29.89R WCI  12
SPRINGFIELD      N/A     24  19  81 NW28G41   29.85R WCI   7
$$




USA.gov is the U.S. government's official web portal to all federal, state and local government web resources and services.